Weather History for Guatemala Aeropuertola Aurora, Guatemala

Change the Weather History Date:

Thursday, January 30, 2014

  Actual Average Record
Temperature  
Mean Temperature 64 °F -  
Max Temperature 73 °F 74 °F - ()
Min Temperature 56 °F 55 °F - ()
Growing Degree Days 14 (Base 50)    
Moisture  
Dew Point 55 °F    
Average Humidity 73    
Maximum Humidity 94    
Minimum Humidity 45    
Precipitation  
Precipitation 0.00 in - - ()
Sea Level Pressure  
Sea Level Pressure 30.25 in    
Wind  
Wind Speed 11 mph ()    
Max Wind Speed 18 mph    
Max Gust Speed -    
Visibility 6.2 miles    
Events      
T = Trace of Precipitation, MM = Missing Value Source: Averaged Metar Reports

Daily Weather History Graph

Daily Weather History Graph

Search for Another Location

Airport:

Trip Planner

Search our weather history database for the weather conditions in past years. The results will help you decide how hot, cold, wet, or windy it might be!

Date:

Astronomy

Jan. 30, 2014 Rise Set
Actual Time 6:30 AM CST 6:00 PM CST
Civil Twilight 6:08 AM CST 6:22 PM CST
Nautical Twilight 5:42 AM CST 6:48 PM CST
Astronomical Twilight 5:16 AM CST 7:14 PM CST
Moon 6:03 AM CST (1/30) 6:01 PM CST (1/30)
Length of Visible Light 12h 14m
Length of Day
11h 29m
Waning Crescent, 0% of the Moon is Illuminated
Jan 30
Waning Crescent
Jan 30
New
Feb 6
First Quarter
Feb 14
Full
Feb 22
Last Quarter

Hourly Weather History & Observations

Time (CST) Temp. Dew Point Humidity Pressure Visibility Wind Dir Wind Speed Gust Speed Precip Events Conditions
12:00 AM 60.8 °F 57.2 °F 88% 30.27 in 6.2 mi North 11.5 mph - N/A   Scattered Clouds
12:10 AM - - N/A% - 6.2 mi North 13.8 mph - N/A   Mostly Cloudy
1:00 AM 60.8 °F 57.2 °F 88% 30.27 in 6.2 mi North 11.5 mph - N/A   Mostly Cloudy
2:00 AM 59.0 °F 57.2 °F 94% 30.27 in 6.2 mi North 9.2 mph - N/A   Mostly Cloudy
3:00 AM 59.0 °F 57.2 °F 94% 30.24 in 6.2 mi North 6.9 mph - N/A   Mostly Cloudy
4:00 AM 59.0 °F 57.2 °F 94% 30.27 in 6.2 mi NNE 13.8 mph - N/A   Mostly Cloudy
5:00 AM 59.0 °F 55.4 °F 88% 30.27 in 6.2 mi NNE 11.5 mph - N/A   Mostly Cloudy
6:00 AM 58 °F 55 °F 88% 29.99 in 25 mi North 11.5 mph - -   Mostly Cloudy
6:00 AM 59.0 °F 55.4 °F 88% 30.27 in 6.2 mi North 11.5 mph - N/A   Mostly Cloudy
7:00 AM 59.0 °F 55.4 °F 88% 30.30 in 6.2 mi North 6.9 mph - N/A   Scattered Clouds
8:00 AM 60.8 °F 55.4 °F 82% 30.30 in 6.2 mi NNE 11.5 mph - N/A   Scattered Clouds
9:00 AM 62.6 °F 53.6 °F 72% 30.33 in 6.2 mi North 13.8 mph - N/A   Scattered Clouds
10:00 AM 64.4 °F 53.6 °F 68% 30.33 in 6.2 mi North 13.8 mph - N/A   Scattered Clouds
11:00 AM 68.0 °F 53.6 °F 60% 30.33 in - North - - N/A   Mostly Cloudy
12:00 PM 69 °F 52 °F 45% 30.00 in 25 mi North 16.1 mph - -   Scattered Clouds
12:00 PM 68.0 °F 51.8 °F 56% 30.30 in 6.2 mi North 16.1 mph - N/A   Partly Cloudy
1:00 PM 71.6 °F 51.8 °F 50% 30.27 in 6.2 mi NE 13.8 mph - N/A   Partly Cloudy
2:00 PM 73.4 °F 57.2 °F 57% 30.24 in 6.2 mi NE 13.8 mph - N/A   Scattered Clouds
3:00 PM 73.4 °F 51.8 °F 47% 30.21 in 6.2 mi NNE 13.8 mph - N/A   Partly Cloudy
4:00 PM 73.4 °F 53.6 °F 50% 30.21 in 6.2 mi NNE 13.8 mph - N/A   Partly Cloudy
5:00 PM 71.6 °F 53.6 °F 53% 30.21 in 6.2 mi NNE 13.8 mph - N/A   Partly Cloudy
6:00 PM 68.0 °F 51.8 °F 56% 30.21 in 6.2 mi North 16.1 mph - N/A   Partly Cloudy
7:00 PM 64.4 °F 55.4 °F 73% 30.24 in - North 13.8 mph - N/A   Clear
8:00 PM 62.6 °F 55.4 °F 77% 30.24 in - North 13.8 mph - N/A   Clear
9:00 PM 60.8 °F 53.6 °F 77% 30.27 in 6.2 mi North 18.4 mph - N/A   Partly Cloudy
10:00 PM 60.8 °F 55.4 °F 82% 30.27 in 6.2 mi North 13.8 mph - N/A   Scattered Clouds
11:00 PM 59.0 °F 55.4 °F 88% 30.27 in 6.2 mi North 9.2 mph - N/A   Scattered Clouds